Aeroporto :
LOGIN :

Iscrizione | Disclaimer

   EN    FR    IT 

 










Sommario :    VFR   VFR Marginale   IFR   IFR Intensivo   IFR Molto Intensivo
Visibilità : 
Base nubi : 
>= 8 km
>= 3000ft
5 / 8 km
1000 / 3000 ft
1500m / 5 km
500 / 1000 ft
800 / 1500m
200 / 500 ft
< 800m
< 200 ft
Simboli :   Temporali  Nebbia  Neve Forte  Precipitazioni Forti  Vento > 20 kt
SIGMETs :   Varie  Temporali  Ghiacco  Turbolenza  Onda orograficha  Ceneri Vulcaniche







- Altitudine del aeroporto : 277 ft
- Codice IATA : JER
- Carte del aeroporto


EGJJ - Jersey

ULTIMO METAR :
  • 231550Z 29015KT 9999 FEW006 14/12 Q1032

METARs OBSOLETI :
  • 231520Z 28016KT 9999 FEW008 15/12 Q1032
  • 231450Z 28015KT 9999 FEW009 15/12 Q1032
  • 231420Z 27015KT 9999 FEW012 15/12 Q1033
  • 231350Z 28015KT 9999 FEW010 15/11 Q1033
  • 231320Z 27014KT 9999 FEW010 15/12 Q1033

TAF TAF EGJJ
Valido dal 23 a 15 ore il 24 a 00 ore UTC


231402Z 2315/2324 28015KT 9999 FEW015
ATIS : +44 1534 498 073
Nessun NOTAM noto per questo aeroporto.



MetMap, La meteo Aeronautica in un colpo d'occhio ! - Copyright ORBIFLY Dicembre 2007 - Disclaimer

ORBIFLY MET'MAP TEAM :

Programmazione e sviluppo : Alexandra Zaïnal
Concezione e sviluppo : Baudouin d'Aumeries
Co-Programmazione e sviluppo : Marc-Olivier Méhu
Supporto tecnico e logistico : Manuel Goepfert
Aiuto per la traduzione : Arnaldo La Scala

Contatto : metmap@orbifly.com




FONTI E CREDITI :

   NOAA